Accueil
METAR-TAF:

METAR-TAF

Aéroports :

Base aérienne de Neubourg

Neubourg, Allemagne

latitude: 48-43N, longitude: 011-13E, altitude: 380 m

Observation

Le bulletin a été fait il y a 1 heure et 4 minutes, à 17:20 UTC
Vent 7 kt de ouest/nord-ouest
Température 18°C
Humidité 68%
Pression 1014 hPa
Visibilité 10 km ou plus
Quelques nuages à une hauteur de 1200 ft
Nuages épars à une hauteur de 15000 ft
Nuages fragmentés à une hauteur de 20000 ft

METAR: ETSN 221720Z 29007KT 9999 FEW012 SCT150 BKN200 18/12 Q1014 BLU+

Heure: 20:24 (18:24 UTC)


TAF: absent

Observations et prévisions météorologiques de plus de 4000 aéroports (messages METAR et TAF).

Les stations disponibles sont représentées par des disques jaunes et rouges sur la carte.

Passer la souris dessus pour voir le nom de la station.

Cliquer dessus pour voir les observations et prévisions météorologiques.

Pour changer de carte: cliquez sur les boutons verts avec une croix noire pour zoomer, sur le bouton vert avec un tiret pour effectuer un zoom arrière, ou sur les flèches vertes pour les cartes adjacentes.


METAR-TAF: